Weather Roundup
Issued by NWS Chicago, IL

Current Version | Previous Version | Text Only | Print | Product List | Glossary On
Versions: 1 2 3 4 5 6 7 8 9 10 11 12 13 14 15 16 17 18 19 20 21 22 23 24 25 26 27 28 29 30 31 32 33 34 35 36 37 38 39 40 41 42 43 44 45 46 47 48 49 50
000
NZUS59 KLOT 262009
HRRLOT

CHICAGO AREA WEATHER ROUNDUP
NATIONAL WEATHER SERVICE CHICAGO/ROMEOVILLE IL
300 PM CDT FRI AUG 26 2016

NOTE: "FAIR" INDICATES FEW OR NO CLOUDS BELOW 12,000 FEET WITH NO
SIGNIFICANT WEATHER AND/OR OBSTRUCTIONS TO VISIBILITY.

* THESE STATIONS ARE NOT UNDER NWS QUALITY CONTROL. THEY ALSO MAY NOT
  REPORT WEATHER SUCH AS PRECIPITATION OR FOG.

ILZ005-006-012>014-019>023-262100-
NORTHEAST ILLINOIS

CITY           SKY/WX    TMP DP  RH WIND       PRES   REMARKS
OHARE          PTSUNNY   79  60  52 NE10      30.12F HX  80
MIDWAY         PTSUNNY   79  62  56 E6        30.12F HX  80
AURORA         CLOUDY    80  62  54 NE6       30.11F HX  81
LANSING*       CLOUDY    78  70  75 N8        30.12F HX  80
JOLIET*        CLOUDY    82  66  58 SE6       30.11F HX  85
WAUKEGAN       CLOUDY    75  60  59 E6        30.14F
DUPAGE AIRPORT PTSUNNY   80  60  50 E3        30.11F HX  81
WHEELING       SUNNY     76  58  53 NE7       30.14F
KANKAKEE*      CLOUDY    80  68  67 E5        30.11F HX  82
MORRIS*        CLOUDY    82  64  54 E3        30.09F HX  83
LEWIS AIRPORT* CLOUDY    81  68  64 E7        30.11F HX  83
NORTHERLY ISL    N/A     75  65  70 NE8         N/A
$$

WIZ051-052-058>065-066-070>072-262100-
SOUTHEAST WISCONSIN

CITY           SKY/WX    TMP DP  RH WIND       PRES   REMARKS
MILWAUKEE      CLOUDY    75  57  53 SE6       30.15F
KENOSHA*       MOSUNNY   76  62  62 E8        30.15F
RACINE*        MOSUNNY   75  59  57 SE9       30.16F
BURLINGTON     MOSUNNY   77  55  46 CALM      30.14F
WAUKESHA       SUNNY     72  55  56 CALM      30.17F
$$

INZ001>003-010>013-019-020-262100-
NORTHWEST INDIANA

CITY           SKY/WX    TMP DP  RH WIND       PRES   REMARKS
GARY*          PTSUNNY   77  68  73 N7        30.14F
MICHIGAN CITY* NOT AVBL
RENSSELAER*    NOT AVBL
VALPARAISO     CLOUDY    80  63  55 E6        30.13F HX  81
$$

LMZ740>746-262100-
SOUTHERN LAKE MICHIGAN

STATION/POSITION TIME  SKY/WX   TEMP WIND        PRES    VSBY
                                AIR  DIR/SP/G
                 (UTC)          (F)  (DEG/KT/KT) (MB)    (MI)
HARRISON CRIB    1900            72   20/  7/  8   N/A
BURNHAM HARBOR   2000            75   30/  4/  8   N/A
CALUMET HARBOR   1900            73  360/  9/ 10 1020.5F
BURNS HARBOR     1900            75   40/  9/ 11 1021.0F
MICHIGAN CITY    1900            73   10/ 10/ 11   N/A
$$

ABBREVIATIONS USED IN REMARKS
   TC - TEMPERATURE IN CELSIUS
  WCI - WIND CHILL INDEX
   HX - HEAT INDEX
  VSB - VISIBILITY
$$



USA.gov is the U.S. government's official web portal to all federal, state and local government web resources and services.